Regional Weather Roundup
Issued by NWS

Home | Current Version | Previous Version | Text Only | Print | Product List | Glossary On
Versions: 1 2 3 4 5 6 7 8 9 10 11 12 13 14 15 16 17 18 19 20 21 22 23 24 25 26 27 28 29 30 31 32 33 34 35 36 37 38 39 40 41 42 43 44 45 46 47 48 49 50
000
ASUS43 KBIS 210420
RWRND

NORTH DAKOTA REGIONAL WEATHER ROUNDUP
NATIONAL WEATHER SERVICE BISMARCK ND
1100 PM CDT SAT SEP 20 2014

NOTE: "FAIR" INDICATES FEW OR NO CLOUDS BELOW 12,000 FEET WITH NO
SIGNIFICANT WEATHER AND/OR OBSTRUCTIONS TO VISIBILITY.


NDZ001>003-009>011-017-210500-
NORTHWEST NORTH DAKOTA

CITY           SKY/WX    TMP DP  RH WIND       PRES   REMARKS
WILLISTON      CLEAR     52  37  56 W9        30.17R
MINOT          MOCLDY    57  40  52 W15       30.08R
MINOT AFB      CLEAR     54  44  70 NW13      30.08R
$$

NDZ018>021-031>035-040>046-210500-
SOUTHWEST NORTH DAKOTA

CITY           SKY/WX    TMP DP  RH WIND       PRES   REMARKS
BISMARCK       CLEAR     56  41  57 W9        30.12R
DICKINSON      CLEAR     46  35  65 W7        30.18R
GARRISON         N/A     54  41  61 W9        30.12R
HETTINGER ARPT CLEAR     47  35  63 NW6       30.21R
$$

NDZ004>008-012>016-024-026-027-054-210500-
NORTHEAST NORTH DAKOTA

CITY           SKY/WX    TMP DP  RH WIND       PRES   REMARKS
GRAND FORKS    CLOUDY    54  51  90 NW8       29.95R
GRND FRKS AFB  MOCLDY    54  53  95 NW9       29.96R
DEVILS LAKE    MOCLDY    57  45  62 N15       30.00R
$$

NDZ022-023-025-028>030-036>039-047>053-210500-
SOUTHEAST NORTH DAKOTA

CITY           SKY/WX    TMP DP  RH WIND       PRES   REMARKS
FARGO          MOCLDY    55  50  83 N7        29.95R
JAMESTOWN      CLOUDY    58  45  62 NW10      30.01R
$$



USA.gov is the U.S. government's official web portal to all federal, state and local government web resources and services.